Location: 22
(39.7117°N, 89.5929°W)
Time: 10:10:37
(UTC-05:00)

Transit 2A - Pass Details

Date: 06 August 2024
Orbit: 590 x 961 km, 66.7° (Epoch: 13 September)

Event Time Altitude Azimuth Distance (km) Brightness Sun altitude
Rises 14:44:11 0° 325° (NW) 3,649 9.5 58.1°
Reaches altitude 10° 14:46:51 10° 320° (NW) 2,701 9.0 57.7°
Maximum altitude 14:52:55 48° 249° (WSW) 1,223 9.2 56.8°
Drops below altitude 10° 14:58:42 10° 177° (S) 2,580 9.1 55.9°
Sets 15:01:12 0° 171° (S) 3,472 9.6 55.5°
